Date String (YYYY-MM-DD hh:mm:ss) UTC,Instrument flags,Ambient pressure (hPa),Sample flow (lpm),Bypass flow (lpm),Sample temperature (°C),Ambient temperature (°C),ASC tube jacket temperature (°C),LED temperature (°C),Box temperature (°C),Sample RH (%),Span deviation,Mass concentration (μg/m³),Mass concentration (μg/m³),Mass concentration (μg/m³)
DateTimeUTC,F1_M11,P_M11,Q1_M11,Q2_M11,T1_M11,T2_M11,T3_M11,T4_M11,T5_M11,U1_M11,ZSPAN_M11,X0_M11,X2_M11,X1_M11
2022-01-26 12:00:00,,0824.5,4.98,0.00,22.1,23.1,00.0,31.0,24.0,07.3,0000.0,0004.59,0003.65,0003.54
2022-01-26 12:01:00,,0824.5,5.00,0.00,22.2,22.8,00.0,31.1,24.0,07.3,0000.0,0004.59,0003.65,0003.53
2022-01-26 12:02:00,,0824.6,4.99,0.00,22.2,22.5,00.0,31.1,24.0,07.3,0000.0,0004.53,0003.63,0003.53
2022-01-26 12:03:00,,0824.5,5.00,0.00,22.1,22.2,00.0,31.1,23.9,07.3,0000.0,0004.50,0003.63,0003.53
2022-01-26 12:04:00,,0824.4,5.01,0.00,22.1,21.9,00.0,31.0,23.8,07.3,0000.0,0004.49,0003.61,0003.52
2022-01-26 12:05:00,,0824.4,5.00,0.00,22.1,21.7,00.0,31.0,23.7,07.3,0000.0,0004.47,0003.61,0003.51
2022-01-26 12:06:00,,0824.5,5.01,0.00,22.0,21.6,00.0,31.0,23.6,07.3,0000.0,0004.45,0003.61,0003.52
2022-01-26 12:07:00,,0824.5,5.00,0.00,22.0,21.4,00.0,31.0,23.6,07.3,0000.0,0004.37,0003.58,0003.51
2022-01-26 12:08:00,,0824.5,5.00,0.00,21.9,21.3,00.0,31.0,23.5,07.3,0000.0,0004.39,0003.58,0003.51
2022-01-26 12:09:00,,0824.5,4.99,0.00,21.9,21.2,00.0,31.0,23.4,07.3,0000.0,0004.32,0003.56,0003.49
2022-01-26 12:10:00,,0824.5,5.01,0.00,21.9,21.6,00.0,31.0,23.5,07.3,0000.0,0004.26,0003.55,0003.49
2022-01-26 12:11:00,,0824.5,4.99,0.00,22.0,22.3,00.0,31.0,23.8,07.2,0000.0,0004.29,0003.55,0003.48
2022-01-26 12:12:00,,0824.5,5.01,0.00,22.2,23.0,00.0,31.1,24.1,07.2,0000.0,0004.36,0003.56,0003.47
2022-01-26 12:13:00,,0824.5,5.01,0.00,22.3,23.2,00.0,31.1,24.2,07.1,0000.0,0004.43,0003.57,0003.46
2022-01-26 12:14:00,,0824.5,5.00,0.00,22.3,22.8,00.0,31.1,24.2,07.1,0000.0,0004.50,0003.58,0003.47
2022-01-26 12:15:00,,0824.5,4.99,0.00,22.3,22.5,00.0,31.1,24.0,07.1,0000.0,0004.55,0003.60,0003.48
2022-01-26 12:16:00,,0824.5,5.00,0.00,22.2,22.2,00.0,31.1,23.9,07.1,0000.0,0004.67,0003.62,0003.48
2022-01-26 12:17:00,,0824.5,5.01,0.00,22.2,21.9,00.0,31.1,23.8,07.1,0000.0,0004.74,0003.64,0003.49
2022-01-26 12:18:00,,0824.4,5.00,0.00,22.1,21.6,00.0,31.1,23.7,07.0,0000.0,0004.95,0003.68,0003.52
2022-01-26 12:19:00,,0824.6,4.99,0.00,22.0,21.4,00.0,31.1,23.5,07.1,0000.0,0005.04,0003.72,0003.54
2022-01-26 12:20:00,,0824.5,4.99,0.00,22.0,21.2,00.0,31.0,23.4,07.2,0000.0,0005.16,0003.75,0003.57
2022-01-26 12:21:00,,0824.5,4.99,0.00,21.9,21.1,00.0,31.0,23.4,07.2,0000.0,0005.20,0003.77,0003.57
2022-01-26 12:22:00,,0824.6,5.00,0.00,21.9,21.3,00.0,31.0,23.4,07.2,0000.0,0005.24,0003.78,0003.59
2022-01-26 12:23:00,,0824.6,5.01,0.00,22.0,22.0,00.0,31.0,23.7,07.1,0000.0,0005.19,0003.79,0003.62
2022-01-26 12:24:00,,0824.6,5.00,0.00,22.1,22.7,00.0,31.1,24.0,07.1,0000.0,0005.13,0003.80,0003.66
2022-01-26 12:25:00,,0824.6,5.01,0.00,22.2,23.1,00.0,31.1,24.2,07.0,0000.0,0005.14,0003.82,0003.69
2022-01-26 12:26:00,,0824.6,5.00,0.00,22.3,22.8,00.0,31.1,24.1,07.0,0000.0,0005.20,0003.85,0003.72
2022-01-26 12:27:00,,0824.6,4.99,0.00,22.2,22.4,00.0,31.1,24.0,07.0,0000.0,0005.16,0003.86,0003.75
2022-01-26 12:28:00,,0824.6,5.00,0.00,22.2,22.1,00.0,31.1,23.9,07.1,0000.0,0005.24,0003.90,0003.79
2022-01-26 12:29:00,,0824.6,5.00,0.00,22.1,21.9,00.0,31.1,23.8,07.1,0000.0,0005.17,0003.92,0003.81
2022-01-26 12:30:00,,0824.6,5.00,0.00,22.1,21.7,00.0,31.1,23.7,07.1,0000.0,0005.25,0003.94,0003.83
2022-01-26 12:31:00,,0824.6,5.02,0.00,22.0,21.5,00.0,31.1,23.6,07.2,0000.0,0005.31,0003.99,0003.89
2022-01-26 12:32:00,,0824.6,5.00,0.00,22.0,21.4,00.0,31.0,23.5,07.2,0000.0,0005.47,0004.07,0003.97
2022-01-26 12:33:00,,0824.6,5.00,0.00,21.9,21.2,00.0,31.0,23.5,07.2,0000.0,0005.62,0004.15,0004.05
2022-01-26 12:34:00,,0824.6,5.00,0.00,21.9,21.5,00.0,31.0,23.5,07.2,0000.0,0005.77,0004.22,0004.12
2022-01-26 12:35:00,,0824.6,4.99,0.00,22.0,22.3,00.0,31.1,23.8,07.2,0000.0,0005.92,0004.29,0004.18
2022-01-26 12:36:00,,0824.6,5.00,0.00,22.2,23.0,00.0,31.1,24.1,07.1,0000.0,0006.01,0004.33,0004.22
2022-01-26 12:37:00,,0824.6,5.00,0.00,22.3,23.1,00.0,31.1,24.2,07.0,0000.0,0006.08,0004.38,0004.28
2022-01-26 12:38:00,,0824.6,4.99,0.00,22.3,22.8,00.0,31.2,24.1,07.0,0000.0,0006.26,0004.45,0004.33
2022-01-26 12:39:00,,0824.6,5.01,0.00,22.3,22.4,00.0,31.1,24.0,07.0,0000.0,0006.37,0004.48,0004.36
2022-01-26 12:40:00,,0824.6,5.00,0.00,22.2,22.0,00.0,31.1,23.8,07.1,0000.0,0006.47,0004.52,0004.40
2022-01-26 12:41:00,,0824.5,5.00,0.00,22.1,21.7,00.0,31.1,23.7,07.1,0000.0,0006.50,0004.56,0004.44
2022-01-26 12:42:00,,0824.5,5.00,0.00,22.0,21.4,00.0,31.1,23.5,07.1,0000.0,0006.52,0004.57,0004.46
2022-01-26 12:43:00,,0824.5,5.00,0.00,21.9,21.2,00.0,31.1,23.4,07.1,0000.0,0006.51,0004.56,0004.44
2022-01-26 12:44:00,,0824.5,4.99,0.00,21.9,21.1,00.0,31.0,23.3,07.2,0000.0,0006.45,0004.54,0004.41
2022-01-26 12:45:00,,0824.6,5.00,0.00,21.8,21.3,00.0,31.0,23.4,07.2,0000.0,0006.46,0004.52,0004.40
2022-01-26 12:46:00,,0824.6,5.01,0.00,21.9,22.0,00.0,31.1,23.6,07.2,0000.0,0006.55,0004.52,0004.40
2022-01-26 12:47:00,,0824.6,5.00,0.00,22.1,22.8,00.0,31.1,23.9,07.1,0000.0,0006.83,0004.53,0004.42
2022-01-26 12:48:00,,0824.6,5.01,0.00,22.2,23.0,00.0,31.1,24.1,07.1,0000.0,0006.94,0004.52,0004.40
2022-01-26 12:49:00,,0824.5,5.00,0.00,22.2,22.6,00.0,31.1,24.0,07.1,0000.0,0006.87,0004.50,0004.39
2022-01-26 12:50:00,,0824.5,5.00,0.00,22.2,22.3,00.0,31.1,23.9,07.1,0000.0,0006.81,0004.48,0004.36
2022-01-26 12:51:00,,0824.5,5.00,0.00,22.1,21.9,00.0,31.1,23.7,07.1,0000.0,0006.73,0004.45,0004.34
2022-01-26 12:52:00,,0824.4,5.00,0.00,22.0,21.6,00.0,31.1,23.6,07.1,0000.0,0006.67,0004.43,0004.32
2022-01-26 12:53:00,,0824.4,5.00,0.00,21.9,21.3,00.0,31.0,23.4,07.2,0000.0,0006.66,0004.41,0004.30
2022-01-26 12:54:00,,0824.4,4.99,0.00,21.8,21.0,00.0,31.0,23.3,07.2,0000.0,0006.57,0004.38,0004.27
2022-01-26 12:55:00,,0824.4,5.00,0.00,21.8,21.1,00.0,31.0,23.3,07.2,0000.0,0006.53,0004.37,0004.26
2022-01-26 12:56:00,,0824.4,5.03,0.00,21.9,21.9,00.0,31.0,23.6,07.2,0000.0,0006.44,0004.35,0004.24
2022-01-26 12:57:00,,0824.5,5.00,0.00,22.0,22.6,00.0,31.1,23.9,07.2,0000.0,0006.33,0004.31,0004.22
2022-01-26 12:58:00,,0824.5,5.00,0.00,22.2,23.0,00.0,31.1,24.1,07.1,0000.0,0006.00,0004.28,0004.18
2022-01-26 12:59:00,,0824.4,4.99,0.00,22.2,22.6,00.0,31.1,24.0,07.1,0000.0,0005.79,0004.24,0004.15
